Lexington Weather

Lexington, Massachusetts, USA

42°F
4/22/2024 8:26am 
  • Lexington Conditions: Clear
  • Temperature: 42.3°F / 5.7°CWarmer 3.8°F than last hour.
  • Dew Point: 27.3°FDecreased 2.5°Fsince last hour.
  • Relative Humidity: 55%Decreased 16.0% since last hour.
  • Wind: Calm, 10-min avg: Calm, gust: None
  • Barometer: 29.95 in Steady
  • Visibility: 10 miles
  • Rain Today: 0.00 in
  •   

Regional Weather Roundup
for Boston, MA

        
000
ASUS41 KBOX 181110
RWRBOX

REGIONAL WEATHER ROUNDUP
NATIONAL WEATHER SERVICE BOSTON/NORTON MA
700 AM EDT THU APR 18 2024

NOTE:  "FAIR" INDICATES FEW OR NO CLOUDS BELOW 12,000 FEET WITH NO 
SIGNIFICANT WEATHER AND/OR OBSTRUCTIONS TO VISIBILITY.

MAZALL-181200-
EASTERN MASSACHUSETTS
  
CITY           SKY/WX    TMP DP  RH WIND       PRES   REMARKS
BOSTON         CLOUDY    45  38  76 E16       30.16R                  
BEVERLY        CLOUDY    44  36  73 E5        30.16R                  
LAWRENCE       CLOUDY    45  39  79 E10       30.18R                  
BEDFORD        CLOUDY    46  31  55 E14       30.14R                  
NORWOOD        CLOUDY    48  35  60 E8        30.15R                  
MARSHFIELD     CLOUDY    45  37  76 E12       30.15R                  
PLYMOUTH       CLOUDY    46  34  62 E14G21    30.12S                  
TAUNTON        CLOUDY    49  31  49 E8        30.13R                  
NEW BEDFORD    CLOUDY    48  30  49 E12G20    30.12R                  
$$

MAZALL-181200-
CAPE COD AND THE ISLANDS
  
CITY           SKY/WX    TMP DP  RH WIND       PRES   REMARKS
FALMOUTH       CLOUDY    46  32  57 SE12G17   30.12S                  
HYANNIS        CLOUDY    45  31  58 E7G18     30.12R                  
CHATHAM        CLOUDY    45  36  70 E12       30.16R                  
PROVINCETOWN   CLOUDY    44  37  76 E10       30.17R                  
NANTUCKET      CLOUDY    44  36  73 E17G25    30.12S                  
MARTHAS VNYRD  CLOUDY    47  34  60 E14       30.10F                  
$$
 
MAZALL-181200-
CENTRAL AND WESTERN MASSACHUSETTS
  
CITY           SKY/WX    TMP DP  RH WIND       PRES   REMARKS
WORCESTER      CLOUDY    45  27  49 E13G23    30.09R                  
FITCHBURG      CLOUDY    46  31  55 E6        30.15R                  
ORANGE         CLOUDY    47  33  58 E9        30.12R                  
SPRINGFIELD    LGT RAIN  45  41  87 CALM      30.07R                  
WESTFIELD      CLOUDY    44  41  89 N5        30.11R                  
NORTH ADAMS    LGT RAIN  46  37  71 E20G29    30.07R                  
PITTSFIELD     RAIN      41  36  82 VRB7      30.06R                  
$$
 
RIZALL-181200-
RHODE ISLAND
  
CITY           SKY/WX    TMP DP  RH WIND       PRES   REMARKS
PROVIDENCE     PTSUNNY   47  32  56 E10G22    30.11R                  
NEWPORT        CLOUDY    45  34  65 E14       30.08S                  
BLOCK ISLAND   CLOUDY    42  38  85 E16G23    30.08R                  
SMITHFIELD     CLOUDY    46  30  53 E9G17     30.12R                  
WESTERLY       CLOUDY    44  39  82 E9        30.07S                  
$$
 
CTZALL-181200-
CONNECTICUT
  
CITY           SKY/WX    TMP DP  RH WIND       PRES   REMARKS
BRADLEY INTL   CLOUDY    46  42  86 N5        30.10R                  
HARTFORD       LGT RAIN  45  40  82 NE6       30.09R                  
PLAINVILLE     RAIN      42  42 100 N6        30.08R FOG              
BRIDGEPORT     LGT RAIN  45  43  93 E23G35    30.04R FOG              
DANBURY        LGT RAIN  45  41  86 E10       30.05R FOG              
GROTON         LGT RAIN  44  42  93 E12       30.06R                  
NEW HAVEN      CLOUDY    46  43  89 E12G23    30.05R                  
CHESTER        LGT RAIN  43  43 100 NE9       30.05S                  
MERIDEN        LGT RAIN  43  38  82 VRB7      30.07R                  
WILLIMANTIC    CLOUDY    43  38  82 NE5       30.08R                  
OXFORD         LGT RAIN  41  40  96 E10G21    30.05R FOG              
$$

MEZ002-015-021-024-NHZ003-005-008-011-012-014-VTZ005-008-181200-
NORTHERN NEW ENGLAND
  
CITY           SKY/WX    TMP DP  RH WIND       PRES   REMARKS
PORTLAND ME    PTSUNNY   42  32  67 NE10      30.21R                  
BANGOR ME      PTSUNNY   36  28  73 N3        30.23R                  
CONCORD NH     CLOUDY    43  33  68 E7        30.18R                  
MANCHESTER NH  CLOUDY    45  37  73 VRB3      30.16R                  
NASHUA NH      CLOUDY    45  39  79 E7        30.17R                  
PORTSMOUTH NH  CLOUDY    45  38  76 NE8       30.18R                  
JAFFREY NH     CLOUDY    44  31  60 VRB5      30.13R                  
KEENE NH       CLOUDY    46  33  60 VRB3      30.13R                  
BURLINGTON VT  MOCLDY    51  33  50 S12G24    30.04R                  
MT. WASHINGTON MOSUNNY   36   9  32 SE6         N/A  WCI  31          
$$

NYZ052-076-181200-
EASTERN NEW YORK
  
CITY           SKY/WX    TMP DP  RH WIND       PRES   REMARKS
ALBANY         LGT RAIN  46  41  82 S9        30.08R                  
NEW YORK CITY  DRIZZLE   46  43  89 NE22G30   30.01R FOG              
$$
 
ANZALL-181200-
MARINE OBSERVATIONS
  
STATION/POSITION TIME  TEMP    WIND        PRES    VSBY  WAVE
                       AIR SEA DIR/SP/G                  HT/PER
                 (UTC) (F)     (DEG/KT/KT) (MB)    (MI)  (FT/S)
BOSTON BUOY      1050   44      80/ 12/ 14 1020.9R         2/ 3
BUZZARDS BAY     1000   45      80/ 17/ 20 1019.1F
NANTUCKET SOUND  1050   45 47   90/ 17/ 21 1019.4R         2/ 4
MASS BAY-STELLWA 0904   45 45   70/ 14/ 16 1021.0R  1 7/8  1/ 3
ISLE OF SHOALS   1000   44      80/ 13/ 14 1020.6R
S OF BLOCK IS    1026      45                N/A           5/ 5
$$

......................KEY.........................
  SKY/WX - SKY CONDITION/PRESENT WEATHER
  TMP    - TEMPERATURE IN FAHRENHEIT
  DWPT   - DEWPOINT IN FAHRENHEIT
  RH     - RELATIVE HUMIDITY IN PERCENT
  WIND   - DIRECTION AND SPEED IN MPH
  PRES   - MEAN SEA LEVEL PRESSURE IN INCHES OF HG
  WCI    - WIND CHILL INDEX
  VSB    - VISIBILITY IN MILES
  HX     - HEAT INDEX
  TC     - TEMPERATURE IN CELSIUS
  VRB    - VARIABLE WIND DIRECTION
  N/A    - NOT AVAILABLE
  
      

Other recent Regional Weather Roundups

Mon Apr 22, 8:10am EDT

Mon Apr 22, 7:10am EDT

Mon Apr 22, 6:10am EDT

Mon Apr 22, 5:10am EDT

Mon Apr 22, 4:10am EDT

Mon Apr 22, 3:10am EDT

Mon Apr 22, 2:10am EDT

Mon Apr 22, 1:10am EDT

Mon Apr 22, 12:10am EDT

Sun Apr 21, 11:10pm EDT

Sun Apr 21, 10:10pm EDT

Sun Apr 21, 9:10pm EDT

Sun Apr 21, 8:10pm EDT

Sun Apr 21, 7:10pm EDT

Sun Apr 21, 6:10pm EDT

Sun Apr 21, 5:10pm EDT

Sun Apr 21, 4:10pm EDT

Sun Apr 21, 3:10pm EDT

Sun Apr 21, 2:10pm EDT

Sun Apr 21, 1:10pm EDT

Sun Apr 21, 12:10pm EDT

Sun Apr 21, 11:10am EDT

Sun Apr 21, 10:10am EDT

Sun Apr 21, 9:10am EDT

Sun Apr 21, 8:10am EDT

Sun Apr 21, 7:10am EDT

Sun Apr 21, 6:10am EDT

Sun Apr 21, 5:10am EDT

Sun Apr 21, 4:10am EDT

Sun Apr 21, 3:10am EDT

Sun Apr 21, 2:10am EDT

Sun Apr 21, 1:10am EDT

Sun Apr 21, 12:10am EDT

Sat Apr 20, 11:10pm EDT

Sat Apr 20, 10:10pm EDT

Sat Apr 20, 9:10pm EDT

Sat Apr 20, 8:10pm EDT

Sat Apr 20, 7:10pm EDT

Sat Apr 20, 6:10pm EDT

Sat Apr 20, 5:10pm EDT

Sat Apr 20, 4:10pm EDT

Sat Apr 20, 3:10pm EDT

Sat Apr 20, 2:10pm EDT

Sat Apr 20, 1:10pm EDT

Sat Apr 20, 12:10pm EDT

Sat Apr 20, 11:10am EDT

Sat Apr 20, 10:10am EDT

Sat Apr 20, 9:10am EDT

Sat Apr 20, 8:10am EDT

Sat Apr 20, 7:10am EDT

Sat Apr 20, 6:10am EDT

Sat Apr 20, 5:10am EDT

Sat Apr 20, 4:10am EDT

Sat Apr 20, 3:10am EDT

Sat Apr 20, 2:10am EDT

Sat Apr 20, 1:10am EDT

Sat Apr 20, 12:10am EDT

Fri Apr 19, 11:10pm EDT

Fri Apr 19, 10:10pm EDT

Fri Apr 19, 9:10pm EDT

Fri Apr 19, 8:10pm EDT

Fri Apr 19, 7:10pm EDT

Fri Apr 19, 6:10pm EDT

Fri Apr 19, 5:10pm EDT

Fri Apr 19, 4:10pm EDT

Fri Apr 19, 3:10pm EDT

Fri Apr 19, 2:10pm EDT

Fri Apr 19, 1:10pm EDT

Fri Apr 19, 12:10pm EDT

Fri Apr 19, 11:10am EDT

Fri Apr 19, 10:10am EDT

Fri Apr 19, 9:10am EDT

Fri Apr 19, 8:10am EDT

Fri Apr 19, 7:10am EDT

Fri Apr 19, 6:10am EDT

Fri Apr 19, 5:10am EDT

Fri Apr 19, 4:10am EDT

Fri Apr 19, 3:10am EDT

Fri Apr 19, 2:10am EDT

Fri Apr 19, 1:10am EDT

Fri Apr 19, 12:10am EDT

Thu Apr 18, 11:10pm EDT

Thu Apr 18, 10:10pm EDT

Thu Apr 18, 9:10pm EDT

Thu Apr 18, 8:10pm EDT

Thu Apr 18, 7:10pm EDT

Thu Apr 18, 6:10pm EDT

Thu Apr 18, 5:10pm EDT

Thu Apr 18, 4:10pm EDT

Thu Apr 18, 3:10pm EDT

Thu Apr 18, 2:10pm EDT

Thu Apr 18, 1:10pm EDT

Thu Apr 18, 12:10pm EDT

Thu Apr 18, 11:10am EDT

Thu Apr 18, 10:10am EDT

Thu Apr 18, 9:10am EDT

Thu Apr 18, 8:10am EDT

Thu Apr 18, 6:10am EDT

Thu Apr 18, 5:10am EDT

Thu Apr 18, 4:10am EDT

Thu Apr 18, 3:10am EDT

Thu Apr 18, 2:10am EDT

Thu Apr 18, 1:10am EDT

Thu Apr 18, 12:10am EDT

Wed Apr 17, 11:10pm EDT

Wed Apr 17, 10:10pm EDT

Wed Apr 17, 9:10pm EDT

Wed Apr 17, 8:10pm EDT

Wed Apr 17, 7:10pm EDT

Wed Apr 17, 6:10pm EDT

Wed Apr 17, 5:10pm EDT

Wed Apr 17, 4:10pm EDT

Wed Apr 17, 3:10pm EDT

Wed Apr 17, 2:10pm EDT

Wed Apr 17, 1:10pm EDT

Wed Apr 17, 12:10pm EDT

Wed Apr 17, 11:10am EDT

Wed Apr 17, 10:10am EDT

Wed Apr 17, 9:10am EDT

Wed Apr 17, 8:10am EDT

Wed Apr 17, 7:10am EDT

Wed Apr 17, 6:10am EDT

Wed Apr 17, 5:10am EDT

Wed Apr 17, 4:10am EDT

Wed Apr 17, 3:10am EDT

Wed Apr 17, 2:10am EDT

Wed Apr 17, 1:10am EDT

Wed Apr 17, 12:10am EDT

Tue Apr 16, 11:10pm EDT

Tue Apr 16, 10:10pm EDT

Tue Apr 16, 9:10pm EDT

Tue Apr 16, 8:10pm EDT

Tue Apr 16, 7:10pm EDT

Tue Apr 16, 6:10pm EDT

Tue Apr 16, 5:10pm EDT

Tue Apr 16, 4:10pm EDT

Tue Apr 16, 3:10pm EDT

Tue Apr 16, 2:10pm EDT

Tue Apr 16, 1:10pm EDT

Tue Apr 16, 12:10pm EDT

Tue Apr 16, 11:10am EDT

Tue Apr 16, 10:10am EDT

Tue Apr 16, 9:10am EDT

Tue Apr 16, 8:10am EDT

Tue Apr 16, 7:10am EDT

Tue Apr 16, 6:10am EDT

Tue Apr 16, 5:10am EDT

Tue Apr 16, 4:10am EDT

Tue Apr 16, 3:10am EDT

Tue Apr 16, 2:10am EDT

Tue Apr 16, 1:10am EDT

Tue Apr 16, 12:10am EDT

Mon Apr 15, 11:10pm EDT

Mon Apr 15, 10:10pm EDT

Mon Apr 15, 9:10pm EDT

Mon Apr 15, 8:10pm EDT

Mon Apr 15, 7:10pm EDT

Mon Apr 15, 6:10pm EDT

Mon Apr 15, 5:10pm EDT

Mon Apr 15, 4:10pm EDT

Mon Apr 15, 3:10pm EDT

Mon Apr 15, 2:10pm EDT

Mon Apr 15, 1:10pm EDT

Mon Apr 15, 12:10pm EDT

Mon Apr 15, 11:10am EDT

Mon Apr 15, 10:10am EDT

Mon Apr 15, 9:10am EDT